Theta_e
339 343 346 349 362 364 370 367 364 360 358 354 352 356 357 356 357 366 346 349 348 348 348 351 349 352 348 347 348 348 352 351 352 352 350 352 352 352 352 352 351 351 350 351 351 348 349 351 350
344 345 348 357 371 370 369 361 364 360 354 352 353 354 356 357 351 348 349 347 349 348 350 351 349 348 349 347 344 347 351 352 351 351 352 352 353 351 352 350 350 352 351 351 351 351 349 349 350
350 349 355 362 365 370 371 366 361 359 353 352 359 356 355 353 347 347 347 348 349 349 350 348 350 351 352 352 352 352 352 352 352 352 353 351 352 352 351 351 349 350 350 350 350 349 349 349 350
348 349 357 369 369 365 363 365 361 357 356 356 356 359 352 346 348 347 347 349 349 350 352 347 351 352 353 353 352 350 350 352 351 352 350 352 347 352 350 351 351 350 350 349 350 350 349 348 346
346 358 368 369 369 368 361 362 360 361 361 358 357 359 354 349 349 345 346 348 344 350 349 352 351 350 352 351 352 353 352 350 351 352 349 349 353 352 351 352 349 351 347 348 349 349 349 349 342
357 358 371 373 367 364 359 359 361 362 359 359 358 357 355 349 346 345 346 345 348 347 347 352 351 351 352 352 352 353 352 353 353 349 351 352 352 352 351 351 351 351 350 348 349 349 348 346 333
356 365 370 367 366 367 361 359 360 360 359 359 353 358 354 348 346 346 344 346 345 344 349 351 352 353 353 352 352 352 352 352 352 352 349 351 351 351 350 350 350 348 348 349 349 346 342 336 336
351 361 363 364 364 368 361 359 356 354 356 352 352 358 357 349 347 346 344 343 342 346 347 348 350 351 351 353 352 353 353 353 348 349 346 340 347 347 345 345 349 349 348 348 349 346 340 335 333
347 361 367 363 363 368 363 364 354 352 357 355 353 354 350 347 346 345 345 342 345 343 344 346 348 348 350 351 353 353 353 348 350 348 338 346 349 350 351 343 342 343 344 344 343 342 343 341 337
350 360 358 353 355 363 363 360 359 358 356 356 355 352 350 347 346 346 345 344 344 341 343 343 346 349 351 349 351 352 351 351 349 349 348 347 349 347 346 340 339 340 344 342 342 340 338 345 348
348 355 350 351 354 357 361 358 354 356 357 356 358 354 350 347 346 345 344 344 344 341 341 343 349 345 350 350 351 351 350 351 350 348 348 349 347 344 345 344 346 342 344 347 345 345 343 342 345
348 348 349 349 353 358 363 360 360 356 360 354 354 351 349 349 346 345 344 344 343 341 344 348 345 349 350 347 352 350 350 351 347 347 348 348 345 346 347 349 349 346 347 349 344 347 346 344 346
343 345 346 351 354 356 360 360 361 359 354 352 352 350 350 349 346 345 343 343 342 341 343 348 349 344 344 350 350 346 346 347 347 347 349 346 350 349 348 347 344 348 347 345 344 346 345 347 346
340 343 344 349 353 354 359 358 358 355 353 354 352 352 350 349 347 346 345 343 343 341 344 347 346 349 351 348 349 349 345 348 346 345 350 350 350 349 351 350 347 347 342 344 342 344 343 345 345
333 338 338 342 354 354 353 355 357 357 354 355 353 352 351 349 347 347 345 344 342 341 343 343 347 346 349 349 349 347 346 348 346 349 345 352 352 353 353 349 349 346 348 348 344 342 340 343 342
330 333 338 340 353 354 355 356 351 356 358 356 354 353 352 350 348 345 345 343 342 342 344 343 344 349 350 349 349 346 345 349 349 351 349 352 352 353 352 349 350 349 344 342 341 340 341 343 341
329 330 336 339 346 353 355 359 359 355 356 357 356 353 352 351 349 346 344 343 343 344 346 343 345 348 348 349 346 348 348 348 347 349 351 352 350 352 348 351 349 343 349 347 344 342 339 343 341
330 328 331 336 338 349 351 355 359 358 352 357 356 354 352 350 349 346 344 343 343 345 347 344 347 349 347 351 348 349 348 348 350 349 353 353 353 354 350 351 351 351 346 340 349 345 339 342 339
329 328 327 331 334 349 352 358 353 351 349 357 357 355 354 351 348 347 345 344 345 343 346 348 347 350 348 348 351 350 348 348 348 349 351 352 353 353 351 353 349 348 350 347 347 341 338 344 337
331 330 328 329 332 342 358 358 353 350 355 356 356 354 353 351 350 349 346 344 345 345 346 348 348 350 348 350 350 349 347 347 349 349 354 353 352 353 352 351 351 349 351 351 350 350 346 339 338
328 329 328 329 332 337 341 356 352 347 350 352 352 352 352 352 352 351 348 346 345 346 347 348 349 351 348 350 347 349 349 350 348 354 353 354 353 353 354 353 352 350 351 350 349 349 348 346 340
328 327 327 327 330 337 339 348 359 359 359 351 348 353 352 352 352 352 349 347 345 347 347 348 350 353 348 348 347 348 349 350 345 354 353 351 353 353 356 353 355 351 352 349 350 349 349 345 346
327 328 328 327 327 331 339 343 344 361 361 354 357 356 352 352 351 352 350 348 346 347 348 348 350 354 351 347 348 345 348 348 348 345 354 353 353 355 355 354 355 352 353 351 351 351 348 349 347
326 326 327 328 326 327 329 335 340 350 356 351 354 354 353 352 352 351 350 349 347 348 347 350 350 352 353 346 350 346 347 348 348 345 353 355 354 354 356 355 354 355 353 352 353 353 350 348 349
326 326 328 329 329 327 326 327 333 340 355 354 349 348 348 354 352 353 352 351 349 348 349 350 352 352 354 354 348 353 346 346 349 347 352 353 355 352 353 355 354 354 354 353 354 352 355 349 353
326 326 328 331 330 329 329 327 328 331 341 351 349 350 351 354 353 352 352 351 350 349 349 350 354 354 354 356 350 349 351 343 346 349 345 347 349 351 350 354 354 354 354 355 353 353 353 354 349
327 330 327 328 329 330 330 329 328 329 334 345 348 351 351 352 353 352 353 351 351 350 350 352 354 356 356 353 355 349 353 351 347 346 346 349 346 348 353 350 358 354 356 352 355 353 350 356 353
324 326 329 329 333 336 331 334 331 331 334 340 347 346 348 352 350 353 353 352 352 351 352 352 355 356 357 355 355 353 349 351 347 341 343 345 351 347 355 354 354 355 355 357 355 355 352 353 356
321 322 325 329 331 333 333 332 335 339 333 336 348 348 344 347 352 350 349 352 352 352 353 353 354 357 358 358 355 354 352 349 345 349 339 351 347 354 348 355 356 355 354 356 355 352 355 354 352
318 319 318 321 333 332 332 331 332 335 333 332 331 335 350 351 352 349 342 342 353 354 353 354 354 357 359 359 356 355 354 351 350 343 353 348 355 350 357 350 355 352 355 355 355 357 354 356 355
Wind_Speed
11 11 9 5 3 5 7 3 7 14 9 4 11 16 12 8 3 10 31 26 29 24 18 15 14 13 14 13 14 14 14 12 11 12 11 11 12 12 12 12 12 12 12 13 11 13 12 12 11
12 11 11 2 3 3 1 3 15 8 13 15 20 16 17 14 17 23 22 31 26 24 20 16 16 13 13 13 13 13 12 11 11 13 11 11 11 11 12 11 12 12 13 13 13 13 13 11 12
9 2 1 2 5 6 1 6 10 4 16 10 14 15 8 17 26 27 32 31 28 25 25 19 17 15 14 14 13 13 12 11 11 12 11 11 10 11 10 10 12 12 12 12 11 11 11 11 11
8 5 3 4 8 8 6 8 14 10 12 15 15 13 15 34 21 30 34 32 30 29 23 20 17 15 13 14 13 13 13 13 12 12 11 11 10 11 10 11 11 12 11 12 11 10 9 10 11
8 2 4 6 2 3 9 5 12 11 11 14 15 16 10 21 28 33 31 30 31 27 24 19 18 16 14 14 13 13 14 13 12 13 11 11 11 11 11 12 11 12 13 12 10 10 10 9 11
1 3 4 3 6 2 3 13 14 11 9 5 15 18 6 23 34 30 27 25 32 28 25 19 17 16 15 14 14 13 13 13 14 14 13 12 13 12 13 12 12 11 11 11 11 11 12 11 12
9 5 10 3 8 10 5 5 12 14 4 6 14 11 10 16 31 28 27 35 31 29 24 19 16 15 15 13 13 14 14 14 14 14 14 14 13 13 12 12 12 11 10 11 11 12 11 12 12
9 3 11 7 9 5 16 9 12 17 12 8 16 8 19 19 31 27 26 32 30 28 22 22 17 15 14 13 13 13 14 14 15 14 13 15 15 14 13 14 12 11 10 11 11 11 11 14 15
12 6 8 3 6 4 18 16 16 15 13 16 13 17 28 35 31 27 24 27 31 27 25 21 20 17 17 14 13 14 15 15 14 12 14 16 12 13 10 10 12 11 11 13 12 10 7 6 7
8 7 6 8 12 9 9 18 19 11 16 12 14 25 35 36 29 26 21 25 25 25 27 26 25 22 21 18 15 14 15 14 13 12 10 10 12 11 9 9 10 7 8 11 15 15 11 2 6
19 15 12 16 10 18 16 16 18 10 17 19 21 25 28 31 26 23 27 29 25 26 24 27 30 21 17 19 18 17 18 15 12 8 9 9 11 8 9 6 6 3 5 8 4 9 14 17 4
19 20 17 2 10 8 9 14 5 15 10 11 24 26 24 25 23 26 28 30 26 26 26 27 24 19 17 16 18 12 18 21 14 10 5 5 9 5 7 3 10 2 3 11 8 16 15 16 3
19 20 7 6 12 7 16 8 6 13 19 8 25 28 23 24 27 30 26 28 25 25 25 28 27 21 22 14 15 18 17 18 17 13 7 12 4 5 4 4 4 6 10 4 8 9 8 17 10
17 18 16 2 10 11 13 9 15 18 16 22 25 28 25 23 27 29 27 27 25 26 28 24 26 27 19 13 2 13 10 16 12 11 11 7 8 5 4 4 4 4 6 8 7 7 2 9 15
14 19 11 14 10 10 9 5 9 23 16 25 24 26 26 23 31 28 26 24 24 24 24 24 20 13 12 11 9 9 6 7 13 15 8 5 5 4 2 4 8 5 4 7 6 4 6 14 10
12 17 16 17 16 13 15 10 13 15 6 23 25 23 25 25 29 27 28 28 26 25 26 24 20 21 15 11 6 9 16 7 14 10 9 5 5 5 4 4 6 7 8 7 6 6 4 10 12
14 15 20 21 24 18 18 10 10 16 19 23 21 24 22 21 20 28 29 26 29 24 29 25 19 21 18 13 14 14 8 8 10 12 10 9 4 4 2 2 5 7 3 7 7 4 4 6 9
16 17 18 18 18 22 15 6 14 9 10 25 23 23 22 20 19 26 28 27 30 25 26 26 20 22 21 19 14 10 8 7 11 12 11 11 7 10 5 3 4 7 9 5 5 7 2 5 6
21 19 19 17 17 20 14 12 5 11 9 15 21 22 23 25 22 28 29 28 30 28 25 24 22 26 24 20 15 14 15 9 14 14 11 9 9 8 5 8 5 5 3 6 4 3 1 4 6
21 20 19 14 17 19 20 17 18 10 16 22 23 24 24 25 26 25 29 31 30 31 30 25 24 29 26 21 20 16 19 18 16 16 15 9 7 8 8 6 8 6 11 7 4 4 4 6 3
19 19 17 19 14 12 13 19 17 15 16 17 25 24 23 25 27 24 26 30 30 32 33 30 26 28 27 20 21 16 13 13 17 19 14 12 10 6 5 6 8 7 4 6 7 3 2 4 7
19 16 18 19 17 12 16 15 26 21 21 5 24 24 24 24 23 23 25 29 32 33 34 33 29 28 30 25 22 18 14 13 18 20 16 19 14 11 9 7 6 7 4 9 5 5 1 2 3
18 17 14 17 18 18 18 15 17 29 18 17 28 23 25 24 25 25 26 32 34 36 36 36 34 28 29 31 24 24 19 17 13 15 21 22 17 14 13 11 8 5 8 7 7 6 8 6 2
18 14 19 16 15 16 21 19 16 15 20 14 13 19 16 26 25 26 34 34 32 34 37 36 37 34 30 36 28 27 26 18 15 17 23 20 20 17 12 12 11 9 5 10 8 7 6 5 1
17 15 12 13 13 17 20 18 16 20 26 34 20 12 33 26 25 25 26 28 33 36 39 39 40 38 35 32 33 25 31 29 19 17 18 20 20 22 21 17 14 12 11 8 10 9 7 8 3
19 18 14 18 14 18 20 20 18 24 16 33 33 29 9 26 25 25 27 32 38 39 40 40 41 39 39 34 36 31 28 32 27 14 18 14 16 21 25 24 18 15 12 11 10 9 10 9 9
21 20 22 23 20 17 17 18 24 21 21 13 16 20 23 11 16 25 24 31 36 36 40 41 42 40 40 41 35 35 29 29 26 21 21 17 20 13 22 25 19 15 15 12 13 12 10 9 11
14 14 14 15 22 23 18 20 14 20 18 14 14 14 14 12 18 10 22 29 34 38 38 38 38 41 40 40 38 36 37 34 28 32 24 24 19 20 20 22 20 19 17 16 15 15 13 12 13
13 16 14 14 13 19 16 16 17 13 22 19 20 18 23 30 17 8 15 27 34 36 36 39 37 39 39 38 38 36 36 36 38 27 33 25 28 17 19 16 18 19 20 18 17 19 15 17 16
16 20 18 13 17 15 14 17 22 17 14 17 16 13 23 22 21 20 11 40 36 37 38 39 39 38 41 40 38 38 36 37 36 39 28 33 27 27 18 21 17 19 19 20 21 21 19 17 19
Wind_Direction
184 196 206 249 276 233 269 306 193 111 97 154 93 96 95 77 90 117 140 144 142 148 152 148 147 143 133 127 123 119 116 117 111 107 104 98 96 93 86 84 85 82 85 86 86 86 89 85 95
180 203 210 253 240 241 113 258 129 123 97 88 108 110 74 86 97 123 131 145 145 146 149 149 145 139 129 123 124 121 120 118 116 110 107 102 98 98 91 89 87 84 86 83 86 87 83 84 87
235 157 120 246 261 255 275 341 98 98 96 114 93 61 36 100 121 135 137 145 149 147 143 147 138 133 130 130 122 122 126 122 115 110 106 105 104 98 94 91 92 86 84 87 82 85 87 85 86
170 177 231 241 249 287 146 151 84 140 111 102 95 81 86 125 116 128 145 150 152 137 129 141 137 132 128 126 127 124 121 116 115 114 112 108 103 98 92 99 93 92 89 87 85 84 89 92 91
180 205 236 245 215 275 182 87 128 74 50 70 94 107 87 101 125 141 153 163 139 128 131 136 135 136 131 126 124 122 116 118 117 113 112 107 103 103 100 99 98 97 91 89 86 82 90 106 107
272 250 258 333 308 139 103 128 111 80 28 55 99 109 96 135 138 152 162 161 129 131 133 134 137 130 128 127 125 119 120 121 116 118 116 116 105 101 107 104 102 98 94 92 91 93 90 98 113
236 279 279 183 258 154 136 318 132 115 107 318 127 127 137 145 150 159 153 124 129 134 132 135 134 132 132 128 128 129 129 124 123 123 121 117 112 111 110 106 103 104 107 103 102 111 102 97 112
229 228 300 355 284 83 151 163 143 144 157 154 144 155 161 162 160 153 159 130 145 132 137 140 138 138 133 131 130 129 128 129 133 134 129 122 117 110 106 101 110 116 116 106 101 117 114 108 121
227 255 276 286 322 181 143 150 166 156 146 190 188 145 158 156 164 157 161 142 132 135 147 147 146 147 141 130 140 135 134 139 137 137 133 117 126 118 112 125 114 119 121 113 109 100 77 79 127
219 267 299 344 296 152 265 152 154 163 174 201 171 126 151 158 163 167 159 143 145 150 159 154 147 150 157 141 148 148 148 151 146 144 137 134 142 137 133 115 114 113 134 132 120 109 87 221 219
228 245 262 200 273 165 189 154 159 141 188 158 139 144 151 159 169 165 168 152 162 161 164 147 140 153 169 145 157 169 169 160 160 146 165 167 133 146 121 103 113 71 185 107 110 148 139 143 218
238 248 259 58 0 127 125 342 35 105 252 277 140 149 151 162 165 172 173 161 166 155 134 132 134 144 136 151 172 177 176 164 138 132 140 143 144 149 169 182 167 57 168 169 180 176 137 104 71
236 254 292 252 186 103 141 138 99 196 185 201 135 149 159 165 166 177 180 160 163 152 150 142 132 152 190 211 154 161 174 178 145 125 160 169 214 154 130 115 148 19 82 127 58 131 161 167 106
242 239 258 314 241 167 163 171 193 158 166 140 151 155 167 172 172 185 179 163 161 156 139 135 145 155 186 193 250 195 154 133 134 154 150 131 140 150 142 126 121 47 196 104 122 91 118 170 117
273 273 260 221 244 202 265 218 214 151 194 144 156 165 162 176 179 189 169 161 161 152 144 145 144 159 167 162 127 113 152 145 127 141 150 135 137 154 118 142 118 182 117 134 144 86 93 126 116
268 250 254 234 197 212 202 225 237 97 299 150 159 174 157 180 186 172 170 167 162 160 151 151 169 159 169 155 149 164 186 221 138 140 137 172 159 177 172 264 159 120 121 121 114 157 115 118 136
248 240 229 257 190 204 205 214 127 121 213 158 164 173 163 184 189 175 168 170 158 155 146 158 175 163 170 164 171 185 229 140 170 165 164 175 179 136 145 160 101 141 127 117 201 200 155 138 149
239 218 245 224 242 202 206 146 143 202 258 152 169 176 168 179 194 170 174 174 157 151 152 162 172 166 169 164 189 200 178 168 171 172 173 168 178 148 129 193 175 120 115 183 77 229 172 104 148
268 284 235 249 233 190 190 135 99 306 277 233 165 177 177 171 189 173 179 177 158 165 164 169 179 166 170 170 191 196 185 174 185 183 175 170 157 156 167 142 160 129 159 125 97 123 286 310 101
255 265 278 247 242 215 139 150 154 190 252 240 169 178 181 176 172 184 184 179 171 166 167 177 183 167 174 178 191 198 184 190 194 187 167 156 174 174 187 178 172 170 136 162 147 296 316 114 111
239 250 261 271 260 238 230 152 165 222 237 298 173 176 185 182 174 178 184 180 176 167 168 176 183 173 176 186 196 210 212 193 183 174 166 173 187 199 210 154 171 154 167 187 193 196 287 10 151
243 238 257 275 278 231 221 254 178 188 220 320 291 175 185 185 182 172 180 183 182 172 170 175 183 179 183 191 193 203 209 201 188 177 196 176 183 188 192 166 180 174 208 180 188 211 289 136 245
246 254 242 246 269 274 258 222 257 166 180 166 230 185 181 189 185 178 181 187 183 173 173 176 182 188 188 194 192 199 211 217 196 202 198 175 180 191 195 187 187 199 174 181 185 193 206 215 250
240 246 261 261 239 248 248 256 246 206 174 159 232 239 238 188 188 182 181 183 184 177 177 177 181 189 191 197 198 195 203 206 210 210 159 170 184 188 206 202 189 202 202 185 193 205 229 237 37
235 216 236 235 234 242 234 240 244 268 163 168 167 224 258 184 187 179 177 180 186 184 179 180 182 186 191 195 206 198 200 212 218 212 189 187 184 187 195 195 191 202 206 201 191 196 225 237 241
211 221 226 226 232 239 233 248 237 250 240 173 175 189 258 183 181 181 180 184 187 188 184 183 182 185 189 195 203 205 201 213 220 217 211 223 211 203 198 191 197 191 210 195 208 199 206 217 230
246 219 240 261 254 249 251 227 230 243 242 181 150 165 171 254 249 180 179 187 186 190 188 186 185 186 189 193 196 205 203 203 211 210 216 214 230 258 191 190 187 194 204 200 208 217 221 225 211
250 282 240 227 252 265 262 259 242 207 221 197 155 143 161 189 268 196 175 188 190 193 190 189 186 189 191 193 195 197 203 204 203 214 213 219 218 235 191 188 188 194 209 212 210 222 224 217 214
236 257 257 277 262 247 257 259 271 227 204 209 183 169 164 192 183 316 298 195 195 192 192 190 191 188 192 195 198 199 200 204 206 208 217 215 218 223 220 196 192 197 207 217 218 226 229 213 221
256 272 251 243 245 269 264 250 263 10 200 207 229 227 187 161 154 181 302 280 185 189 193 190 192 193 194 196 197 200 201 202 206 209 213 211 208 219 221 218 207 211 212 217 220 222 236 227 218